Location: North Runcton
(52.7000°N, 0.4333°E)
Time: 20:05:23
(UTC+00:00)

Cosmos 1743 Rocket - Pass Details

Date: 19 May 2025
Orbit: 598 x 626 km, 82.6° (Epoch: 23 June)

Event Time Altitude Azimuth Distance (km) Brightness Sun altitude
Rises 23:19:12 0° 350° (N) 2,927 8.8 -16.9°
Reaches altitude 10° 23:21:27 10° 352° (N) 2,013 7.5 -17.0°
Maximum altitude 23:25:55 76° 78° (ENE) 650 3.6 -17.0°
Enters shadow 23:27:52 33° 158° (SSE) 1,054 4.2 -17.1°
